Regional Weather Roundup
Issued by NWS

Home | Current Version | Previous Version | Text Only | Print | Product List | Glossary Off
Versions: 1 2 3 4 5 6 7 8 9 10 11 12 13 14 15 16 17 18 19 20 21 22 23 24 25 26 27 28 29 30 31 32 33 34 35 36 37 38 39 40 41 42 43 44 45 46 47 48 49 50

000
ASUS43 KDTX 190010
RWRMI
MICHIGAN HOURLY REGIONAL WEATHER ROUNDUP
NATIONAL WEATHER SERVICE DETROIT/PONTIAC MI
800 PM EDT FRI AUG 18 2017

NOTE: "FAIR" INDICATES FEW OR NO CLOUDS BELOW 12,000 FEET WITH NO
SIGNIFICANT WEATHER AND/OR OBSTRUCTION TO VISIBILITY.

MIZ047>049-052>055-059>063-066>070-074>076-081>083-190100-
SOUTHEAST LOWER MICHIGAN

CITY           SKY/WX    TMP DP  RH WIND       PRES   REMARKS
ADRIAN         PTCLDY    73  62  68 NW7       29.86R
6HR MIN TEMP:  73; 6HR MAX TEMP:  78;

ALMA           CLOUDY    68  60  74 W7        29.84S
ANN ARBOR      MOCLDY    73  61  65 W13G22    29.84R
BAD AXE        CLOUDY    66  62  88 W8G18     29.81R
6HR MIN TEMP:  66; 6HR MAX TEMP:  72;

CARO           CLOUDY    69  61  76 W5        29.80S
DETROIT CITY   CLOUDY    74  60  61 W13G21    29.82R
6HR MIN TEMP:  74; 6HR MAX TEMP:  78;

DETROIT        MOCLDY    75  61  61 NW13      29.84R
6HR MIN TEMP:  75; 6HR MAX TEMP:  82;

FLINT          CLOUDY    70  60  70 W12       29.83R
6HR MIN TEMP:  70; 6HR MAX TEMP:  73;

GROSSE ILE     MOCLDY    75  61  61 NW12      29.82R
6HR MIN TEMP:  75; 6HR MAX TEMP:  80;

HILLSDALE      CLOUDY    70  59  68 NW9       29.87S
HOWELL         CLOUDY    70  60  71 W9        29.85S
6HR MIN TEMP:  70; 6HR MAX TEMP:  75;


CITY           SKY/WX    TMP DP  RH WIND       PRES   REMARKS
JACKSON        CLOUDY    70  58  65 W6        29.87R
6HR MIN TEMP:  70; 6HR MAX TEMP:  76;

LAMBERTVILLE   CLEAR     74  61  62 W7        29.84S
6HR MIN TEMP:  74; 6HR MAX TEMP:  78;

LANSING        CLOUDY    69  58  67 W13       29.86S
6HR MIN TEMP:  69; 6HR MAX TEMP:  74;

LAPEER         CLOUDY    70  60  69 W9G17     29.82S
6HR MIN TEMP:  70; 6HR MAX TEMP:  73;

MASON          CLOUDY    71  59  66 W9G18     29.86S
MONROE         CLEAR     74  61  62 W8        29.83R
6HR MIN TEMP:  74; 6HR MAX TEMP:  80;

MT. CLEMENS    CLOUDY    74  60  61 W13       29.80R
6HR MIN TEMP:  74; 6HR MAX TEMP:  78;

PONTIAC        CLOUDY    71  61  70 W15       29.82S
6HR MIN TEMP:  71; 6HR MAX TEMP:  76;

PORT HOPE        N/A     69  63  81 W7        29.76R
6HR MIN TEMP:  69; 6HR MAX TEMP:  74;

PORT HURON     CLOUDY    73  61  64 W7        29.81R
TRI CITIES     CLOUDY    70  63  78 W9        29.82R
6HR MIN TEMP:  70; 6HR MAX TEMP:  75;

MIDLAND        CLOUDY    68  60  76 W7        29.81S
6HR MIN TEMP:  68; 6HR MAX TEMP:  74;

TROY           CLOUDY    74  60  62 W13       29.84S
SAGINAW HB     CLOUDY    70  59  68 W10G16    29.81S
$$
MIZ043>046-050>051-056>058-064>065-071>073-077>080-190100-
SOUTHWEST LOWER MICHIGAN

CITY           SKY/WX    TMP DP  RH WIND       PRES   REMARKS
BATTLE CREEK   CLEAR     70  60  70 W8        29.88R
6HR MIN TEMP:  70; 6HR MAX TEMP:  74;

BENTON HARBOR  CLEAR     74  60  61 CALM      29.86S
6HR MIN TEMP:  73; 6HR MAX TEMP:  76;

BIG RAPIDS     CLOUDY    66  59  78 NW6       29.84R
6HR MIN TEMP:  65; 6HR MAX TEMP:  68;

COLDWATER      CLEAR     72  60  65 W5        29.88R
6HR MIN TEMP:  72; 6HR MAX TEMP:  77;

FREMONT        CLOUDY    68  63  83 W3        29.84S
HOLLAND        PTCLDY    70  62  76 W3        29.86S
6HR MIN TEMP:  69; 6HR MAX TEMP:  72;

GRAND RAPIDS   MOCLDY    70  60  70 W12       29.85S
6HR MIN TEMP:  70; 6HR MAX TEMP:  73;

IONIA          CLOUDY    69  58  68 W8        29.85S
6HR MIN TEMP:  69; 6HR MAX TEMP:  73;

KALAMAZOO      CLEAR     72  58  61 NW7       29.87R
6HR MIN TEMP:  72; 6HR MAX TEMP:  76;

LUDINGTON      CLOUDY    68  62  80 CALM      29.82F
6HR MIN TEMP:  67; 6HR MAX TEMP:  70;

MARSHALL       PTCLDY    70  60  69 NW6       29.86S
6HR MIN TEMP:  70; 6HR MAX TEMP:  75;

MOUNT PLEASANT CLOUDY    69  60  74 W6        29.83R
6HR MIN TEMP:  69; 6HR MAX TEMP:  74;

MUSKEGON       MOCLDY    71  61  70 W5        29.84F
6HR MIN TEMP:  70; 6HR MAX TEMP:  74;

SOUTH HAVEN    CLEAR     72  62  69 CALM      29.86S
$$
MIZ016>042-190100-
NORTHERN LOWER MICHIGAN

CITY           SKY/WX    TMP DP  RH WIND       PRES   REMARKS
ALPENA         CLOUDY    65  59  81 W8G18     29.76R
6HR MIN TEMP:  65; 6HR MAX TEMP:  69;

BEAVER ISLAND  CLOUDY    63  56  78 NW8G18    29.80R
6HR MIN TEMP:  63; 6HR MAX TEMP:  65;

BELLAIRE       CLOUDY    63  59  88 CALM      29.81R
6HR MIN TEMP:  62; 6HR MAX TEMP:  64;

CADILLAC       CLOUDY    65  60  82 W5        29.83S
CHARLEVOIX     CLOUDY    64  58  81 W14G22    29.83R
6HR MIN TEMP:  63; 6HR MAX TEMP:  65;

FRANKFORT      CLOUDY    68  63  84 CALM      29.81S
GAYLORD        CLOUDY    59  57  93 W8G20     29.80R
6HR MIN TEMP:  59; 6HR MAX TEMP:  62; 6HR PCP:  0.03;

GRAYLING       CLOUDY    62  58  88 W5        29.82S
6HR MIN TEMP:  62; 6HR MAX TEMP:  65;

HARBOR SPRINGS CLOUDY    63  56  80 W9G17     29.79R
HOUGHTON LAKE  CLOUDY    63  59  87 W8        29.82F
6HR MIN TEMP:  62; 6HR MAX TEMP:  67; 6HR PCP:  0.01;

MANISTEE       CLOUDY    67  61  81 W3        29.82S
OSCODA         CLOUDY    68  59  73 W17       29.77R
6HR MIN TEMP:  68; 6HR MAX TEMP:  75;

PELLSTON       CLOUDY    63  57  81 W13       29.78R
6HR MIN TEMP:  63; 6HR MAX TEMP:  65;

ROGERS CITY    CLOUDY    63  57  81 W8G17     29.77R
TRAVERSE CITY  CLOUDY    67  58  72 NW5       29.80R
6HR MIN TEMP:  64; 6HR MAX TEMP:  68; 6HR PCP: TRACE;

$$
MIZ007>008-015-190100-
EASTERN UPPER MICHIGAN

CITY           SKY/WX    TMP DP  RH WIND       PRES   REMARKS
KINROSS        CLOUDY    61  57  87 W8        29.74R
6HR MIN TEMP:  61; 6HR MAX TEMP:  65;

MACKINAC ISLAN CLOUDY    61  59  93 W10G16    29.75S
6HR MIN TEMP:  61; 6HR MAX TEMP:  64;

NEWBERRY       CLOUDY    59  58  97 W7        29.76R FOG
6HR MIN TEMP:  59; 6HR MAX TEMP:  61;

S. S. MARIE    CLOUDY    61  58  90 W10       29.71R
6HR MIN TEMP:  61; 6HR MAX TEMP:  63; 6HR PCP: TRACE;

MUNISING         N/A     63  60  90 N10G18    29.79R
6HR MIN TEMP:  62; 6HR MAX TEMP:  63;

$$
MIZ004>006-011>014-085-190100-
CENTRAL UPPER MICHIGAN

CITY           SKY/WX    TMP DP  RH WIND       PRES   REMARKS
MANISTIQUE     LGT RAIN  60  55  81 NW6       29.79R
6HR MIN TEMP:  60; 6HR MAX TEMP:  64;

ESCANABA       CLOUDY    64  58  80 W5        29.82R
6HR MIN TEMP:  64; 6HR MAX TEMP:  69;

MENOMINEE      CLOUDY    67  56  67 N6        29.84R
6HR MIN TEMP:  67; 6HR MAX TEMP:  73;

SAWYER-GWINN   CLOUDY    63  55  77 NW9       29.82R
$$
MIZ001>003-009>011-084-190100-
WESTERN UPPER MICHIGAN

CITY           SKY/WX    TMP DP  RH WIND       PRES   REMARKS
IRON MOUNTAIN  CLOUDY    64  54  69 W5        29.83R
6HR MIN TEMP:  64; 6HR MAX TEMP:  70;

HOUGHTON       CLEAR     63  57  81 W12       29.81S
6HR MIN TEMP:  62; 6HR MAX TEMP:  67;

COPPER HARBOR    N/A     63  55  75 N9        29.79R
6HR MIN TEMP:  59; 6HR MAX TEMP:  65;

IRONWOOD       PTCLDY    64  59  83 SW3       29.86S
6HR MIN TEMP:  64; 6HR MAX TEMP:  69;

$$

ABBREVIATIONS USED IN REMARKS
   TC - TEMPERATURE IN CELSIUS
  WCI - WIND CHILL INDEX
   HX - HEAT INDEX
  VSB - VISIBILITY





USA.gov is the U.S. government's official web portal to all federal, state and local government web resources and services.